Location: Namasale
(1.5000°N, 32.6167°E)
Time: 19:09:34
(UTC+00:00)

Courier 1B - Pass Details

Date: 20 April 2021
Orbit: 962 x 1209 km, 28.3° (Epoch: 10 May)

Event Time Altitude Azimuth Distance (km) Brightness Sun altitude
Rises 19:25:28 0° 281° (W) 3,794 11.2 -52.1°
Enters shadow 19:28:16 10° 272° (W) 2,906 10.4 -52.7°
Reaches altitude 10° 19:28:22 10° 272° (W) 2,880 - -52.8°
Maximum altitude 19:34:43 35° 208° (SSW) 1,704 - -54.2°
Drops below altitude 10° 19:41:26 10° 145° (SE) 3,048 - -55.8°
Sets 19:44:37 0° 136° (SE) 4,043 - -56.5°
